Location: Newark
(49.4500°N, 11.0833°E)
Time: 08:18:33
(UTC+00:00)

N. Korean satellite - Visible Passes

Search period start: 18 October 2019 00:00
Search period end: 28 October 2019 00:00
Orbit: 455 x 508 km, 97.2° (Epoch: 18 October)

Date Brightness Start Highest point End Pass type
(mag) Time Alt. Az. Time Alt. Az. Time Alt. Az.
18 Oct 10.3 04:06:33 10° ENE 04:08:08 12° E 04:09:43 10° ESE visible
19 Oct 10.2 17:27:52 10° WSW 17:29:36 13° W 17:31:21 10° WNW visible
20 Oct 8.5 04:47:53 10° NNE 04:51:14 35° E 04:54:37 10° SSE visible
20 Oct 9.2 17:01:13 10° SSW 17:04:06 25° W 17:07:00 10° NW visible
21 Oct 9.7 04:23:08 10° NE 04:25:47 19° E 04:28:28 10° SE visible
22 Oct 10.5 03:59:35 10° ENE 04:00:15 10° E 04:00:54 10° E visible
23 Oct 7.4 05:05:11 10° NNE 05:08:47 57° E 05:12:24 10° S visible
23 Oct 9.9 17:19:28 10° SW 17:21:41 16° W 17:23:56 10° NW visible
24 Oct 8.9 04:40:09 10° NNE 04:43:23 29° E 04:46:38 10° SSE visible
24 Oct 8.8 16:53:06 10° SSW 16:56:11 30° W 16:59:19 10° NNW visible
25 Oct 10.0 04:15:31 10° NE 04:17:54 16° E 04:20:16 10° SE visible
26 Oct 10.5 17:38:38 10° W 17:39:18 10° W 17:39:58 10° WNW visible
27 Oct 7.9 04:57:21 10° NNE 05:00:54 46° E 05:04:29 10° S visible
27 Oct 9.6 17:11:08 10° SW 17:13:44 20° W 17:16:22 10° NW visible
